カタログに戻る

IGS R-5

運用中軍事SSO
NORAD 42072·PAYLOAD·🇯🇵 Japan

打ち上げ Mar 17, 2017 から Tanegashima Space Center

Loading…

次のパス (今後24時間)

TLE

古いSource: Mike McCants

元期: Aug 31, 2026, 21:05 UTC

1 42072U 17015A   26243.87848534 0.00000000  00000-0  00000-0 0    06
2 42072  97.3603 313.8739 0001726  37.8074 322.1925 15.25981029    00

AllMySatでIGS R-5をリアルタイム追跡

Download on the App Store